STARLINK-11678, 64326

Orbit data source: Space-Track

STARLINK-11678, 64326 is a payload satellite owned by SpaceX/Seattle (US) in LEO that was launched on Tue, 10 Jun 2025 UTC via an FALCON 9 launch vehicle from the Air Force Eastern Test Range (AFETR). Payload-class satellites include a variety of spacecraft equipped with specific instruments for various scientific and technological missions. These include communications satellites like Starlink; space stations such as the ISS; scientific satellites like the Hubble; Earth observation satellites from companies like Planet Labs, Umbra, and HawkEye 360; GPS; miniature CubeSats for education and research; and military/defense satellites.

Loading next visibility...
Identifier
64326, 2025-124K
Orbit
LEO
Country
Flag of USUS
Related business
Manufacturer
SpaceX/Seattle
Mission
Operational Commercial Communications
Bus & Motor
STARLINK V2MD, Unknown motor
Mass
960 kg wet, ~910 kg dry
Launch date (UTC)
2025-06-10 (9 months ago)
Launch vehicle
FALCON 9
Launch site
Air Force Eastern Test Range (AFETR)
Object type
Payload
Rocket body
Debris
Shape & HBR
Box + 2 Pan, 18.1 m
Radar Cross Section
36.964 m², Large (>1 m²)

Expand to show TLE details & history
Last TLE update: 1 day ago

TLE from 1 day ago
0 STARLINK-11678
1 64326U 25124K   26073.84548478  .00027898  00000-0  21999-3 0  9998
2 64326  42.9999 358.2807 0001878 255.4412 104.6247 15.70859813 43643
Epoch: 2026-03-14T20:17Z
TLE epoch observation values (Epoch: 2026-03-14T20:17:29.884Z)
Latitude
-0.00002°
Longitude
-118.55467°
Altitude
356.529 km
Speed
7.697 km/s
True Right ascension
23h 53m 07s
True Declination
0° 00' 00"
Sunlit
Object was in daylight at epoch
Visualization orbit readout
Latitude
Unknown
Longitude
Unknown
Altitude
Unknown
Speed
Unknown
Apparent Right ascension
Unknown
Apparent Declination
Unknown
Sunlit
N/A
Visualization observer readout
Local Sidereal Time
01:12:43
Azimuth
Unknown
Elevation
Unknown
Doppler factor
Unknown
Orbital elements
Apogee altitude
359.685 km
Perigee altitude
357.155 km
Semi-major axis
6,736.557 km
Eccentricity
0.00019
Inclination
42.9999°
RAAN
358.2807°
Arg. of periapsis
255.4412°
True anomaly
104.64552°
Mean anomaly
104.6247°
Eccentric anomaly
104.63511°
Mean motion
3.92542 °/min
Orbital period
91.71 mins
BSTAR
0.00021999
Loading maneuver chart data...
Computing Atmospheric mass density...
Loading historical data...
Loading historical data...
Loading historical data...
Loading historical data...
Loading historical data...
Loading historical data...
Loading historical data...

Documentation

Showing up to 5 results
|